UAE89J OMDB-FIMP

Flight info

Callsign UAE89J
Flight time 5h 45m
Altitude 34000
Route ANVIX R401 GIDIS G783 UKRAG/N0486F330 L710 ITETA/N0489F350 L710 DEDSO/N0488F340 R401 SUHIL UM314 GILID/N0488F360 UM314 UDLET/N0486F350 UM314 PRA/N0486F360 UM313 ALRAN UT400 DUNRI DUNRI1E
Aircraft B77W/H-SDE1E2E3FGHIJ2J3J4J5M1RWXY/LB1D1

Departure

Time 2026-04-22 22:56
Airport Dubai International Airport (OMDB)

Arrival

Time 2026-04-23 04:42
Airport Sir Seewoosagur Ramgoolam International Airport (FIMP)
Time Latitude Longitude Altitude Speed Heading
2026-04-22 22:25 25.24216 55.37592 48 ft 0 kts 248°
2026-04-22 22:45 25.24221 55.37604 48 ft 2 kts 248°
2026-04-22 22:45 25.24226 55.37620 48 ft 2 kts 248°
2026-04-22 22:45 25.24232 55.37635 48 ft 2 kts 248°
2026-04-22 22:46 25.24237 55.37651 48 ft 2 kts 259°
2026-04-22 22:46 25.24237 55.37667 48 ft 2 kts 281°
2026-04-22 22:46 25.24233 55.37682 49 ft 2 kts 297°
2026-04-22 22:46 25.24225 55.37696 49 ft 2 kts 315°
2026-04-22 22:47 25.24213 55.37706 49 ft 2 kts 332°
2026-04-22 22:47 25.24199 55.37711 49 ft 2 kts 349°
2026-04-22 22:47 25.24184 55.37712 49 ft 2 kts
2026-04-22 22:47 25.24170 55.37708 49 ft 2 kts 25°
2026-04-22 22:48 25.24164 55.37704 49 ft 0 kts 31°
2026-04-22 22:51 25.24164 55.37705 49 ft 0 kts 31°
2026-04-22 22:51 25.24172 55.37709 49 ft 3 kts 31°
2026-04-22 22:51 25.24205 55.37731 49 ft 7 kts 30°
2026-04-22 22:52 25.24260 55.37767 51 ft 9 kts 32°
2026-04-22 22:52 25.24294 55.37792 54 ft 2 kts 33°
2026-04-22 22:52 25.24302 55.37797 54 ft 1 kts 33°
2026-04-22 22:52 25.24326 55.37815 56 ft 6 kts 33°
2026-04-22 22:53 25.24387 55.37859 58 ft 15 kts 33°
2026-04-22 22:53 25.24475 55.37925 58 ft 14 kts 34°
2026-04-22 22:53 25.24549 55.37981 57 ft 10 kts 34°
2026-04-22 22:53 25.24592 55.38012 58 ft 5 kts 33°
2026-04-22 22:54 25.24624 55.38035 58 ft 5 kts 33°
2026-04-22 22:54 25.24665 55.38063 58 ft 8 kts 32°
2026-04-22 22:54 25.24722 55.38100 58 ft 8 kts 22°
2026-04-22 22:54 25.24770 55.38084 58 ft 7 kts 310°
2026-04-22 22:55 25.24797 55.38046 58 ft 4 kts 302°
2026-04-22 22:55 25.24811 55.38021 58 ft 3 kts 302°
2026-04-22 22:55 25.24945 55.37778 54 ft 63 kts 301°
2026-04-22 22:56 25.25295 55.37150 51 ft 124 kts 301°
2026-04-22 22:56 25.25836 55.36173 42 ft 174 kts 302°
2026-04-22 22:56 25.26507 55.34927 243 ft 195 kts 301°
2026-04-22 22:56 25.27208 55.33595 687 ft 208 kts 302°
2026-04-22 22:57 25.27941 55.32279 1571 ft 196 kts 304°
2026-04-22 22:57 25.28681 55.30980 1896 ft 204 kts 299°
2026-04-22 22:57 25.29098 55.29472 2292 ft 207 kts 273°
2026-04-22 22:57 25.28891 55.27897 2703 ft 209 kts 248°
2026-04-22 22:58 25.28290 55.26448 3105 ft 211 kts 244°
2026-04-22 22:58 25.27627 55.24923 3288 ft 228 kts 245°
2026-04-22 22:58 25.26934 55.23298 3533 ft 241 kts 245°
2026-04-22 22:58 25.26156 55.21628 3963 ft 249 kts 232°
2026-04-22 22:59 25.24787 55.20392 4113 ft 266 kts 201°
2026-04-22 22:59 25.22936 55.20177 4455 ft 276 kts 167°
2026-04-22 22:59 25.21254 55.21148 4988 ft 279 kts 138°
2026-04-22 22:59 25.19870 55.22659 5588 ft 280 kts 135°
2026-04-22 23:00 25.18522 55.24215 6133 ft 284 kts 135°
2026-04-22 23:00 25.17148 55.25806 6707 ft 286 kts 135°
2026-04-22 23:00 25.15782 55.27389 7267 ft 288 kts 135°
2026-04-22 23:00 25.14392 55.28999 7819 ft 290 kts 135°
2026-04-22 23:01 25.13000 55.30609 8275 ft 296 kts 135°
2026-04-22 23:01 25.11532 55.32310 8482 ft 312 kts 134°
2026-04-22 23:01 25.10291 55.34324 8608 ft 332 kts 118°
2026-04-22 23:01 25.09272 55.36712 8822 ft 349 kts 115°
2026-04-22 23:02 25.08273 55.39181 9057 ft 363 kts 115°
2026-04-22 23:02 25.07205 55.41798 9287 ft 377 kts 116°
2026-04-22 23:02 25.06170 55.44449 9682 ft 385 kts 114°
2026-04-22 23:02 25.05124 55.47192 10226 ft 387 kts 114°
2026-04-22 23:03 25.04079 55.49926 10811 ft 390 kts 114°
2026-04-22 23:03 25.03014 55.52703 11447 ft 393 kts 114°
2026-04-22 23:03 25.01918 55.55424 12080 ft 395 kts 118°
2026-04-22 23:03 25.00537 55.58088 12724 ft 399 kts 121°
2026-04-22 23:04 24.99123 55.60709 13367 ft 404 kts 121°
2026-04-22 23:04 24.97676 55.63384 13994 ft 409 kts 121°
2026-04-22 23:04 24.96223 55.66070 14692 ft 414 kts 122°
2026-04-22 23:04 24.94729 55.68832 14813 ft 418 kts 122°
2026-04-22 23:05 24.93137 55.71440 14818 ft 414 kts 127°
2026-04-22 23:05 24.91435 55.74014 14808 ft 415 kts 127°
2026-04-22 23:05 24.89741 55.76568 14818 ft 414 kts 127°
2026-04-22 23:05 24.88037 55.79133 14820 ft 415 kts 127°
2026-04-22 23:06 24.86335 55.81697 14837 ft 414 kts 127°
2026-04-22 23:06 24.84641 55.84247 14849 ft 415 kts 127°
2026-04-22 23:06 24.82913 55.86816 14831 ft 413 kts 130°
2026-04-22 23:06 24.80952 55.89102 14866 ft 412 kts 140°
2026-04-22 23:07 24.78651 55.90958 14877 ft 410 kts 151°
2026-04-22 23:07 24.76055 55.92327 14992 ft 419 kts 162°
2026-04-22 23:07 24.73243 55.93096 15850 ft 415 kts 174°
2026-04-22 23:07 24.70379 55.93312 16858 ft 409 kts 181°
2026-04-22 23:08 24.67551 55.93333 17683 ft 410 kts 182°
2026-04-22 23:08 24.64690 55.93264 18317 ft 414 kts 187°
2026-04-22 23:08 24.61833 55.92722 18916 ft 417 kts 197°
2026-04-22 23:08 24.59116 55.91645 19585 ft 418 kts 207°
2026-04-22 23:09 24.56589 55.90044 20327 ft 418 kts 217°
2026-04-22 23:09 24.54348 55.88044 20984 ft 420 kts 223°
2026-04-22 23:09 24.52152 55.85891 21614 ft 423 kts 223°
2026-04-22 23:09 24.49951 55.83736 22266 ft 426 kts 223°
2026-04-22 23:10 24.47739 55.81582 22901 ft 429 kts 223°
2026-04-22 23:10 24.45487 55.79399 23524 ft 433 kts 223°
2026-04-22 23:10 24.43213 55.77201 24085 ft 437 kts 224°
2026-04-22 23:10 24.40941 55.75009 24581 ft 442 kts 224°
2026-04-22 23:11 24.38619 55.72773 25087 ft 447 kts 224°
2026-04-22 23:11 24.36259 55.70504 25629 ft 451 kts 224°
2026-04-22 23:11 24.33886 55.68223 26143 ft 455 kts 224°
2026-04-22 23:11 24.31506 55.65939 26641 ft 459 kts 224°
2026-04-22 23:12 24.29103 55.63655 27111 ft 464 kts 222°
2026-04-22 23:12 24.26411 55.61599 27551 ft 473 kts 213°
2026-04-22 23:12 24.23440 55.60009 27993 ft 482 kts 205°
2026-04-22 23:12 24.20225 55.58874 28473 ft 488 kts 199°
2026-04-22 23:13 24.16921 55.57884 28991 ft 491 kts 199°
2026-04-22 23:13 24.13636 55.56911 29575 ft 492 kts 199°
2026-04-22 23:13 24.10321 55.55929 30231 ft 491 kts 200°
2026-04-22 23:13 24.07014 55.54948 30822 ft 490 kts 201°
2026-04-22 23:14 24.03736 55.53963 31276 ft 492 kts 201°
2026-04-22 23:14 24.00415 55.52976 31747 ft 493 kts 201°
2026-04-22 23:14 23.97142 55.52007 32278 ft 492 kts 202°
2026-04-22 23:14 23.93834 55.51028 32776 ft 492 kts 202°
2026-04-22 23:15 23.90505 55.50042 33275 ft 491 kts 203°
2026-04-22 23:15 23.87169 55.49055 33726 ft 490 kts 203°
2026-04-22 23:15 23.80489 55.47072 33796 ft 490 kts 203°
2026-04-22 23:16 23.73915 55.45123 33795 ft 489 kts 203°
2026-04-22 23:16 23.67378 55.43184 33796 ft 488 kts 203°
2026-04-22 23:17 23.60809 55.41237 33788 ft 491 kts 203°
2026-04-22 23:17 23.54115 55.39525 33790 ft 499 kts 194°
2026-04-22 23:18 23.47115 55.39732 33643 ft 507 kts 176°
2026-04-22 23:18 23.43661 55.40596 33046 ft 510 kts 171°
2026-04-22 23:18 23.40221 55.41630 32829 ft 514 kts 169°
2026-04-22 23:19 23.33258 55.43894 32788 ft 527 kts 169°
2026-04-22 23:19 23.26238 55.46159 32791 ft 525 kts 169°
2026-04-22 23:20 23.19246 55.48391 32789 ft 526 kts 169°
2026-04-22 23:20 23.12212 55.50624 32784 ft 523 kts 169°
2026-04-22 23:21 23.05162 55.52850 32804 ft 527 kts 169°
2026-04-22 23:21 22.98107 55.55043 32791 ft 526 kts 169°
2026-04-22 23:22 22.91071 55.57203 32778 ft 526 kts 169°
2026-04-22 23:22 22.84006 55.59370 32783 ft 525 kts 169°
2026-04-22 23:23 22.76940 55.61534 32793 ft 528 kts 169°
2026-04-22 23:23 22.69898 55.63692 32784 ft 523 kts 169°
2026-04-22 23:24 22.62856 55.65844 32801 ft 526 kts 169°
2026-04-22 23:24 22.55796 55.68006 32809 ft 523 kts 169°
2026-04-22 23:25 22.48773 55.70154 32791 ft 524 kts 169°
2026-04-22 23:25 22.41758 55.72298 32802 ft 524 kts 169°
2026-04-22 23:26 22.34666 55.74462 32786 ft 525 kts 169°
2026-04-22 23:26 22.27664 55.76588 32790 ft 524 kts 171°
2026-04-22 23:27 22.20488 55.77690 32790 ft 516 kts 181°
2026-04-22 23:27 22.13360 55.78397 32790 ft 515 kts 180°
2026-04-22 23:28 22.06178 55.79107 32791 ft 515 kts 181°
2026-04-22 23:28 21.99052 55.79812 32792 ft 515 kts 181°
2026-04-22 23:29 21.91887 55.80522 32783 ft 514 kts 180°
2026-04-22 23:29 21.84765 55.81227 32774 ft 515 kts 180°
2026-04-22 23:30 21.77575 55.81939 32771 ft 517 kts 180°
2026-04-22 23:30 21.70373 55.82652 32776 ft 517 kts 180°
2026-04-22 23:31 21.63237 55.83354 32780 ft 517 kts 180°
2026-04-22 23:31 21.56079 55.84057 32779 ft 516 kts 180°
2026-04-22 23:32 21.48899 55.84761 32783 ft 516 kts 180°
2026-04-22 23:32 21.41701 55.85466 32784 ft 517 kts 180°
2026-04-22 23:33 21.34524 55.86169 32788 ft 516 kts 180°
2026-04-22 23:33 21.27371 55.86868 32799 ft 521 kts 180°
2026-04-22 23:34 21.20066 55.87580 33475 ft 523 kts 180°
2026-04-22 23:34 21.16454 55.87935 34299 ft 514 kts 181°
2026-04-22 23:34 21.12880 55.88284 34736 ft 514 kts 181°
2026-04-22 23:35 21.05726 55.88978 34803 ft 514 kts 181°
2026-04-22 23:35 20.98585 55.89673 34806 ft 511 kts 181°
2026-04-22 23:36 20.91486 55.90361 34807 ft 513 kts 181°
2026-04-22 23:36 20.84359 55.91052 34800 ft 512 kts 181°
2026-04-22 23:37 20.77276 55.91739 34807 ft 511 kts 181°
2026-04-22 23:37 20.70179 55.92428 34806 ft 509 kts 181°
2026-04-22 23:38 20.63122 55.93110 34805 ft 510 kts 181°
2026-04-22 23:38 20.56029 55.93796 34811 ft 511 kts 181°
2026-04-22 23:39 20.48908 55.94485 34808 ft 510 kts 181°
2026-04-22 23:39 20.41792 55.95171 34818 ft 511 kts 181°
2026-04-22 23:40 20.34749 55.95852 34809 ft 508 kts 180°
2026-04-22 23:40 20.27667 55.96531 34821 ft 510 kts 181°
2026-04-22 23:41 20.20601 55.97203 34824 ft 509 kts 181°
2026-04-22 23:41 20.13516 55.97877 34816 ft 509 kts 180°
2026-04-22 23:42 20.06399 55.98520 34811 ft 509 kts 184°
2026-04-22 23:42 19.99337 55.98677 34831 ft 506 kts 185°
2026-04-22 23:43 19.92284 55.98814 34839 ft 505 kts 185°
2026-04-22 23:43 19.85169 55.98970 34843 ft 505 kts 185°
2026-04-22 23:44 19.78157 55.99133 34844 ft 508 kts 184°
2026-04-22 23:44 19.71076 55.99304 34844 ft 504 kts 184°
2026-04-22 23:45 19.64038 55.99476 34834 ft 504 kts 184°
2026-04-22 23:45 19.57020 55.99648 34836 ft 505 kts 184°
2026-04-22 23:46 19.49980 55.99823 34834 ft 504 kts 184°
2026-04-22 23:46 19.42983 55.99996 34838 ft 506 kts 184°
2026-04-22 23:47 19.35924 56.00172 34842 ft 504 kts 184°
2026-04-22 23:47 19.28848 56.00348 34842 ft 506 kts 184°
2026-04-22 23:48 19.21839 56.00523 34835 ft 503 kts 184°
2026-04-22 23:48 19.14795 56.00697 34845 ft 504 kts 184°
2026-04-22 23:49 19.07770 56.00871 34845 ft 504 kts 184°
2026-04-22 23:49 19.00717 56.01046 34854 ft 504 kts 184°
2026-04-22 23:50 18.93857 56.00284 34812 ft 482 kts 199°
2026-04-22 23:50 18.90620 55.99447 34262 ft 479 kts 200°
2026-04-22 23:50 18.87388 55.98584 33886 ft 479 kts 200°
2026-04-22 23:51 18.80803 55.96818 33845 ft 495 kts 200°
2026-04-22 23:51 18.74092 55.95028 33848 ft 494 kts 200°
2026-04-22 23:52 18.67457 55.93261 33853 ft 493 kts 200°
2026-04-22 23:52 18.60747 55.91473 33853 ft 497 kts 200°
2026-04-22 23:53 18.54056 55.89695 33852 ft 493 kts 200°
2026-04-22 23:53 18.47367 55.87916 33844 ft 493 kts 200°
2026-04-22 23:54 18.40734 55.86154 33846 ft 493 kts 200°
2026-04-22 23:54 18.34064 55.84383 33854 ft 493 kts 200°
2026-04-22 23:55 18.27419 55.82621 33863 ft 492 kts 200°
2026-04-22 23:55 18.20745 55.80852 33862 ft 493 kts 200°
2026-04-22 23:56 18.14060 55.79081 33868 ft 492 kts 200°
2026-04-22 23:56 18.07384 55.77315 33877 ft 493 kts 200°
2026-04-22 23:57 18.00746 55.75560 33874 ft 492 kts 200°
2026-04-22 23:57 17.93932 55.74350 33870 ft 499 kts 193°
2026-04-22 23:58 17.86964 55.73463 33854 ft 500 kts 192°
2026-04-22 23:58 17.80054 55.72583 33841 ft 499 kts 193°
2026-04-22 23:59 17.73144 55.71700 33826 ft 499 kts 192°
2026-04-22 23:59 17.66244 55.70819 33829 ft 499 kts 192°
2026-04-23 00:00 17.55868 55.69493 33828 ft 499 kts 192°
2026-04-23 00:01 17.48985 55.68615 33823 ft 498 kts 193°
2026-04-23 00:01 17.42098 55.67735 33830 ft 500 kts 192°
2026-04-23 00:02 17.35140 55.66848 33823 ft 498 kts 192°
2026-04-23 00:02 17.28292 55.65976 33828 ft 498 kts 192°
2026-04-23 00:03 17.21340 55.65090 33833 ft 498 kts 192°
2026-04-23 00:03 17.14450 55.64214 33838 ft 496 kts 192°
2026-04-23 00:04 17.07608 55.63343 33849 ft 498 kts 192°
2026-04-23 00:04 17.00678 55.62463 33844 ft 497 kts 192°
2026-04-23 00:05 16.93827 55.61593 33850 ft 496 kts 192°
2026-04-23 00:05 16.86980 55.60725 33840 ft 497 kts 192°
2026-04-23 00:06 16.80089 55.59861 33838 ft 497 kts 192°
2026-04-23 00:06 16.73190 55.58999 33843 ft 497 kts 192°
2026-04-23 00:07 16.66269 55.58134 33841 ft 498 kts 192°
2026-04-23 00:07 16.59386 55.57274 33831 ft 500 kts 192°
2026-04-23 00:08 16.52478 55.56412 33836 ft 499 kts 192°
2026-04-23 00:08 16.45538 55.55546 33845 ft 499 kts 192°
2026-04-23 00:09 16.38665 55.54689 33841 ft 499 kts 192°
2026-04-23 00:09 16.31760 55.53829 33841 ft 498 kts 192°
2026-04-23 00:10 16.24858 55.52970 33843 ft 498 kts 192°
2026-04-23 00:10 16.17963 55.52111 33845 ft 500 kts 192°
2026-04-23 00:11 16.11049 55.51252 33839 ft 498 kts 192°
2026-04-23 00:11 16.04126 55.50392 33849 ft 498 kts 192°
2026-04-23 00:12 15.97227 55.49536 33834 ft 499 kts 192°
2026-04-23 00:12 15.90297 55.48676 33824 ft 499 kts 192°
2026-04-23 00:13 15.83408 55.47821 33819 ft 500 kts 192°
2026-04-23 00:13 15.76457 55.46960 33828 ft 500 kts 192°
2026-04-23 00:14 15.69543 55.46105 33827 ft 499 kts 192°
2026-04-23 00:14 15.62616 55.45248 33826 ft 498 kts 192°
2026-04-23 00:15 15.55722 55.44395 33820 ft 499 kts 192°
2026-04-23 00:15 15.48792 55.43539 33830 ft 500 kts 192°
2026-04-23 00:16 15.41875 55.42685 33824 ft 499 kts 192°
2026-04-23 00:16 15.34992 55.41835 33835 ft 498 kts 192°
2026-04-23 00:17 15.28052 55.40980 33837 ft 498 kts 192°
2026-04-23 00:17 15.21148 55.40129 33846 ft 499 kts 191°
2026-04-23 00:18 15.14251 55.39272 33852 ft 500 kts 192°
2026-04-23 00:18 15.07342 55.38406 33842 ft 499 kts 192°
2026-04-23 00:19 15.00412 55.37537 33845 ft 499 kts 191°
2026-04-23 00:19 14.93513 55.36674 33849 ft 500 kts 191°
2026-04-23 00:20 14.86589 55.35808 33840 ft 498 kts 191°
2026-04-23 00:20 14.79679 55.34945 33838 ft 498 kts 191°
2026-04-23 00:21 14.72754 55.34079 33848 ft 500 kts 191°
2026-04-23 00:21 14.65867 55.33220 33848 ft 498 kts 191°
2026-04-23 00:22 14.58933 55.32355 33848 ft 499 kts 191°
2026-04-23 00:22 14.52045 55.31497 33847 ft 500 kts 191°
2026-04-23 00:23 14.45112 55.30633 33843 ft 500 kts 191°
2026-04-23 00:23 14.38200 55.29773 33848 ft 500 kts 191°
2026-04-23 00:24 14.31218 55.28905 33856 ft 500 kts 191°
2026-04-23 00:24 14.24303 55.28045 33852 ft 502 kts 191°
2026-04-23 00:25 14.17377 55.27185 33861 ft 501 kts 191°
2026-04-23 00:25 14.10422 55.26321 33851 ft 499 kts 191°
2026-04-23 00:26 14.03486 55.25460 33853 ft 502 kts 190°
2026-04-23 00:26 13.96588 55.24605 33844 ft 500 kts 191°
2026-04-23 00:27 13.89621 55.23741 33857 ft 502 kts 190°
2026-04-23 00:27 13.82679 55.22866 33849 ft 503 kts 190°
2026-04-23 00:28 13.75703 55.21986 33852 ft 501 kts 191°
2026-04-23 00:28 13.68773 55.21112 33855 ft 501 kts 191°
2026-04-23 00:29 13.61835 55.20238 33871 ft 504 kts 191°
2026-04-23 00:29 13.54884 55.19364 33832 ft 501 kts 191°
2026-04-23 00:30 13.47923 55.18487 33833 ft 504 kts 191°
2026-04-23 00:30 13.40937 55.17609 33838 ft 504 kts 190°
2026-04-23 00:31 13.33979 55.16736 33832 ft 504 kts 191°
2026-04-23 00:31 13.26994 55.15859 33850 ft 502 kts 191°
2026-04-23 00:32 13.20015 55.14983 33843 ft 504 kts 190°
2026-04-23 00:32 13.13076 55.14113 33848 ft 503 kts 191°
2026-04-23 00:33 13.06092 55.13237 33852 ft 504 kts 191°
2026-04-23 00:33 12.99085 55.12360 33854 ft 504 kts 190°
2026-04-23 00:34 12.92121 55.11488 33855 ft 503 kts 191°
2026-04-23 00:34 12.85167 55.10617 33850 ft 504 kts 191°
2026-04-23 00:35 12.78177 55.09744 33846 ft 502 kts 191°
2026-04-23 00:35 12.71207 55.08872 33847 ft 505 kts 190°
2026-04-23 00:36 12.64188 55.07996 33848 ft 504 kts 191°
2026-04-23 00:36 12.57210 55.07125 33845 ft 502 kts 191°
2026-04-23 00:37 12.50237 55.06255 33846 ft 503 kts 191°
2026-04-23 00:37 12.43281 55.05387 33849 ft 503 kts 191°
2026-04-23 00:38 12.36325 55.04520 33846 ft 504 kts 191°
2026-04-23 00:38 12.29331 55.03649 33851 ft 504 kts 191°
2026-04-23 00:39 12.22358 55.02781 33847 ft 502 kts 191°
2026-04-23 00:39 12.15422 55.01918 33844 ft 502 kts 191°
2026-04-23 00:40 12.08436 55.01049 33850 ft 503 kts 191°
2026-04-23 00:40 12.01461 55.00183 33851 ft 505 kts 190°
2026-04-23 00:41 11.94411 54.99981 33847 ft 508 kts 183°
2026-04-23 00:41 11.87316 54.99989 33847 ft 508 kts 183°
2026-04-23 00:42 11.80220 54.99994 33843 ft 507 kts 183°
2026-04-23 00:42 11.73136 54.99997 33847 ft 506 kts 184°
2026-04-23 00:43 11.66048 54.99998 33867 ft 507 kts 183°
2026-04-23 00:43 11.59014 54.99999 33856 ft 506 kts 183°
2026-04-23 00:44 11.51917 55.00000 33829 ft 506 kts 183°
2026-04-23 00:44 11.44874 55.00000 33841 ft 506 kts 183°
2026-04-23 00:45 11.37799 55.00000 33825 ft 506 kts 183°
2026-04-23 00:45 11.30725 55.00000 33837 ft 507 kts 183°
2026-04-23 00:46 11.23669 55.00000 33842 ft 506 kts 183°
2026-04-23 00:46 11.16643 55.00000 33818 ft 505 kts 183°
2026-04-23 00:47 11.09560 55.00000 33853 ft 505 kts 183°
2026-04-23 00:47 11.02539 55.00000 33854 ft 505 kts 183°
2026-04-23 00:48 10.95454 55.00000 33835 ft 505 kts 183°
2026-04-23 00:48 10.88418 55.00000 33853 ft 507 kts 183°
2026-04-23 00:49 10.81306 55.00000 33843 ft 506 kts 183°
2026-04-23 00:49 10.74271 55.00000 33840 ft 505 kts 183°
2026-04-23 00:50 10.67217 55.00000 33857 ft 505 kts 183°
2026-04-23 00:50 10.60218 55.00000 33845 ft 504 kts 183°
2026-04-23 00:51 10.53155 55.00000 33845 ft 505 kts 183°
2026-04-23 00:51 10.46097 55.00000 33846 ft 504 kts 183°
2026-04-23 00:52 10.39064 55.00000 33845 ft 505 kts 183°
2026-04-23 00:52 10.32046 55.00000 33845 ft 506 kts 183°
2026-04-23 00:53 10.25001 55.00000 33851 ft 505 kts 183°
2026-04-23 00:53 10.17921 55.00000 33844 ft 505 kts 183°
2026-04-23 00:54 10.10882 55.00000 33846 ft 504 kts 182°
2026-04-23 00:54 10.03850 55.00000 33850 ft 504 kts 183°
2026-04-23 00:55 9.96835 55.00000 33844 ft 504 kts 183°
2026-04-23 00:55 9.89767 55.00000 33860 ft 504 kts 183°
2026-04-23 00:56 9.82757 55.00000 33837 ft 503 kts 182°
2026-04-23 00:56 9.75719 55.00000 33846 ft 505 kts 182°
2026-04-23 00:57 9.68685 55.00000 33847 ft 504 kts 182°
2026-04-23 00:57 9.61633 55.00000 33846 ft 505 kts 182°
2026-04-23 00:58 9.54598 55.00000 33854 ft 503 kts 182°
2026-04-23 00:58 9.47560 55.00000 33839 ft 504 kts 182°
2026-04-23 00:59 9.40573 55.00000 33847 ft 502 kts 182°
2026-04-23 00:59 9.33545 55.00000 33847 ft 503 kts 182°
2026-04-23 01:00 9.26513 55.00000 33833 ft 503 kts 182°
2026-04-23 01:00 9.19499 55.00000 33835 ft 504 kts 182°
2026-04-23 01:01 9.12455 55.00000 33836 ft 503 kts 182°
2026-04-23 01:01 9.05424 55.00000 33822 ft 502 kts 182°
2026-04-23 01:02 8.98393 55.00000 33830 ft 503 kts 182°
2026-04-23 01:02 8.91420 55.00000 33830 ft 502 kts 182°
2026-04-23 01:03 8.84386 55.00000 33825 ft 503 kts 182°
2026-04-23 01:03 8.77351 55.00000 33825 ft 503 kts 182°
2026-04-23 01:04 8.70329 55.00000 33829 ft 502 kts 182°
2026-04-23 01:04 8.59813 55.00000 33827 ft 503 kts 182°
2026-04-23 01:05 8.52793 55.00000 33836 ft 502 kts 182°
2026-04-23 01:05 8.45752 55.00000 33839 ft 503 kts 182°
2026-04-23 01:06 8.38769 55.00000 33859 ft 503 kts 182°
2026-04-23 01:06 8.31708 55.00000 33850 ft 502 kts 182°
2026-04-23 01:07 8.24690 55.00000 33856 ft 502 kts 182°
2026-04-23 01:07 8.17687 55.00000 33851 ft 502 kts 182°
2026-04-23 01:08 8.10675 55.00000 33852 ft 503 kts 182°
2026-04-23 01:08 8.03676 55.00000 33848 ft 502 kts 182°
2026-04-23 01:09 7.96645 55.00000 33855 ft 503 kts 182°
2026-04-23 01:09 7.89627 55.00000 33852 ft 502 kts 182°
2026-04-23 01:10 7.82618 55.00000 33851 ft 502 kts 182°
2026-04-23 01:10 7.75622 55.00000 33845 ft 501 kts 182°
2026-04-23 01:11 7.68601 55.00000 33855 ft 502 kts 182°
2026-04-23 01:11 7.61632 55.00000 33854 ft 500 kts 181°
2026-04-23 01:12 7.54624 55.00000 33848 ft 502 kts 181°
2026-04-23 01:12 7.47604 55.00000 33841 ft 501 kts 182°
2026-04-23 01:13 7.40597 55.00000 33854 ft 501 kts 181°
2026-04-23 01:13 7.33654 55.00000 33849 ft 500 kts 182°
2026-04-23 01:14 7.26664 55.00000 33836 ft 500 kts 182°
2026-04-23 01:14 7.19678 55.00000 33822 ft 500 kts 182°
2026-04-23 01:15 7.12682 55.00000 33827 ft 499 kts 181°
2026-04-23 01:15 7.05694 55.00000 33820 ft 500 kts 181°
2026-04-23 01:16 6.98750 55.00000 33836 ft 499 kts 181°
2026-04-23 01:16 6.91768 55.00000 33828 ft 499 kts 181°
2026-04-23 01:17 6.84796 55.00000 33827 ft 499 kts 181°
2026-04-23 01:17 6.77831 55.00000 33824 ft 498 kts 181°
2026-04-23 01:18 6.70921 55.00000 33828 ft 499 kts 181°
2026-04-23 01:18 6.63955 55.00000 33828 ft 498 kts 181°
2026-04-23 01:19 6.57006 55.00000 33824 ft 497 kts 181°
2026-04-23 01:19 6.50050 55.00000 33828 ft 499 kts 181°
2026-04-23 01:20 6.43037 55.00000 33827 ft 498 kts 181°
2026-04-23 01:20 6.36076 55.00000 33832 ft 498 kts 181°
2026-04-23 01:21 6.29149 55.00000 33828 ft 496 kts 181°
2026-04-23 01:21 6.22202 55.00000 33838 ft 498 kts 181°
2026-04-23 01:22 6.15247 55.00000 33842 ft 496 kts 181°
2026-04-23 01:22 6.08344 55.00000 33851 ft 497 kts 181°
2026-04-23 01:23 6.01368 55.00000 33842 ft 497 kts 181°
2026-04-23 01:23 5.94426 55.00000 33846 ft 495 kts 181°
2026-04-23 01:24 5.87533 55.00000 33844 ft 496 kts 181°
2026-04-23 01:24 5.80601 55.00000 33850 ft 495 kts 181°
2026-04-23 01:25 5.73661 55.00000 33837 ft 495 kts 181°
2026-04-23 01:25 5.66738 55.00000 33848 ft 496 kts 181°
2026-04-23 01:26 5.59813 55.00000 33843 ft 496 kts 181°
2026-04-23 01:26 5.52869 55.00000 33838 ft 496 kts 181°
2026-04-23 01:27 5.45938 55.00000 33828 ft 495 kts 181°
2026-04-23 01:27 5.39051 55.00001 33829 ft 495 kts 181°
2026-04-23 01:28 5.32117 55.00460 33827 ft 496 kts 176°
2026-04-23 01:28 5.25264 55.01008 33831 ft 496 kts 177°
2026-04-23 01:29 5.18365 55.01539 33833 ft 496 kts 177°
2026-04-23 01:29 5.11417 55.02062 33832 ft 496 kts 177°
2026-04-23 01:30 5.04574 55.02571 33828 ft 493 kts 177°
2026-04-23 01:30 4.97659 55.03082 33825 ft 496 kts 177°
2026-04-23 01:31 4.90752 55.03591 33830 ft 496 kts 177°
2026-04-23 01:31 4.83839 55.04099 33826 ft 496 kts 177°
2026-04-23 01:32 4.76928 55.04606 33826 ft 495 kts 177°
2026-04-23 01:32 4.70071 55.05109 33828 ft 496 kts 177°
2026-04-23 01:33 4.63179 55.05614 33827 ft 495 kts 177°
2026-04-23 01:33 4.56237 55.06122 33827 ft 496 kts 177°
2026-04-23 01:34 4.49308 55.06630 33827 ft 497 kts 177°
2026-04-23 01:34 4.42382 55.07137 33829 ft 496 kts 176°
2026-04-23 01:35 4.35516 55.07639 33831 ft 496 kts 176°
2026-04-23 01:35 4.28616 55.08144 33836 ft 496 kts 176°
2026-04-23 01:36 4.21709 55.08650 33846 ft 496 kts 176°
2026-04-23 01:36 4.14787 55.09156 33846 ft 496 kts 176°
2026-04-23 01:37 4.07878 55.09661 33850 ft 498 kts 176°
2026-04-23 01:37 4.04392 55.09916 34084 ft 504 kts 176°
2026-04-23 01:37 4.00858 55.10175 34814 ft 500 kts 176°
2026-04-23 01:38 3.97436 55.10426 35631 ft 494 kts 176°
2026-04-23 01:38 3.94006 55.10677 35840 ft 498 kts 176°
2026-04-23 01:38 3.87087 55.11183 35846 ft 494 kts 176°
2026-04-23 01:39 3.80177 55.11689 35848 ft 495 kts 176°
2026-04-23 01:39 3.73314 55.12191 35846 ft 494 kts 176°
2026-04-23 01:40 3.66437 55.12694 35847 ft 495 kts 176°
2026-04-23 01:40 3.59544 55.13198 35841 ft 495 kts 176°
2026-04-23 01:41 3.52641 55.13703 35846 ft 494 kts 176°
2026-04-23 01:41 3.45733 55.14208 35844 ft 496 kts 176°
2026-04-23 01:42 3.38844 55.14711 35831 ft 494 kts 176°
2026-04-23 01:42 3.31973 55.15213 35840 ft 495 kts 176°
2026-04-23 01:43 3.25071 55.15718 35828 ft 493 kts 176°
2026-04-23 01:43 3.18223 55.16218 35826 ft 494 kts 176°
2026-04-23 01:44 3.11326 55.16722 35830 ft 496 kts 176°
2026-04-23 01:44 3.04422 55.17226 35830 ft 495 kts 176°
2026-04-23 01:45 2.97506 55.17732 35828 ft 494 kts 176°
2026-04-23 01:45 2.90655 55.18232 35828 ft 494 kts 176°
2026-04-23 01:46 2.83765 55.18735 35818 ft 494 kts 176°
2026-04-23 01:46 2.76896 55.19237 35827 ft 494 kts 176°
2026-04-23 01:47 2.70019 55.19739 35824 ft 494 kts 176°
2026-04-23 01:47 2.63057 55.20247 35831 ft 496 kts 176°
2026-04-23 01:48 2.56197 55.20747 35821 ft 494 kts 176°
2026-04-23 01:48 2.49295 55.21251 35831 ft 494 kts 176°
2026-04-23 01:49 2.42516 55.21746 35830 ft 494 kts 176°
2026-04-23 01:49 2.35644 55.22247 35830 ft 494 kts 176°
2026-04-23 01:50 2.28776 55.22749 35841 ft 494 kts 176°
2026-04-23 01:50 2.21898 55.23250 35851 ft 493 kts 176°
2026-04-23 01:51 2.15017 55.23752 35842 ft 494 kts 176°
2026-04-23 01:51 2.08148 55.24253 35848 ft 494 kts 176°
2026-04-23 01:52 2.01268 55.24755 35850 ft 493 kts 176°
2026-04-23 01:52 1.94442 55.25252 35850 ft 494 kts 176°
2026-04-23 01:53 1.87536 55.25756 35852 ft 493 kts 176°
2026-04-23 01:53 1.80679 55.26256 35845 ft 494 kts 176°
2026-04-23 01:54 1.73795 55.26758 35846 ft 493 kts 176°
2026-04-23 01:54 1.66920 55.27259 35843 ft 493 kts 176°
2026-04-23 01:55 1.60093 55.27757 35848 ft 494 kts 176°
2026-04-23 01:55 1.53202 55.28259 35843 ft 492 kts 176°
2026-04-23 01:56 1.46322 55.28760 35836 ft 493 kts 176°
2026-04-23 01:56 1.39465 55.29261 35833 ft 494 kts 176°
2026-04-23 01:57 1.32624 55.29759 35833 ft 493 kts 176°
2026-04-23 01:57 1.25760 55.30258 35834 ft 492 kts 176°
2026-04-23 01:58 1.18898 55.30757 35835 ft 492 kts 176°
2026-04-23 01:58 1.12060 55.31254 35834 ft 493 kts 176°
2026-04-23 01:59 1.05148 55.31757 35830 ft 492 kts 176°
2026-04-23 01:59 0.98320 55.32253 35831 ft 492 kts 176°
2026-04-23 02:00 0.91436 55.32753 35827 ft 493 kts 176°
2026-04-23 02:00 0.84588 55.33251 35830 ft 493 kts 176°
2026-04-23 02:01 0.77714 55.33751 35828 ft 493 kts 176°
2026-04-23 02:01 0.70871 55.34248 35830 ft 492 kts 176°
2026-04-23 02:02 0.63975 55.34750 35840 ft 493 kts 176°
2026-04-23 02:02 0.57135 55.35247 35843 ft 494 kts 176°
2026-04-23 02:03 0.50252 55.35747 35842 ft 495 kts 176°
2026-04-23 02:03 0.43337 55.36250 35844 ft 494 kts 176°
2026-04-23 02:04 0.36450 55.36750 35848 ft 494 kts 176°
2026-04-23 02:04 0.29580 55.37250 35848 ft 494 kts 176°
2026-04-23 02:05 0.22708 55.37749 35852 ft 495 kts 176°
2026-04-23 02:05 0.15836 55.38248 35850 ft 495 kts 176°
2026-04-23 02:06 0.08938 55.38750 35848 ft 496 kts 176°
2026-04-23 02:06 0.02013 55.39253 35849 ft 496 kts 176°
2026-04-23 02:07 -0.04881 55.39754 35850 ft 495 kts 176°
2026-04-23 02:07 -0.11763 55.40255 35848 ft 495 kts 176°
2026-04-23 02:08 -0.18626 55.40753 35843 ft 495 kts 176°
2026-04-23 02:08 -0.25580 55.41259 35850 ft 496 kts 176°
2026-04-23 02:09 -0.32463 55.41759 35845 ft 496 kts 176°
2026-04-23 02:09 -0.39387 55.42262 35846 ft 495 kts 176°
2026-04-23 02:10 -0.46251 55.42761 35845 ft 496 kts 176°
2026-04-23 02:10 -0.53200 55.43266 35840 ft 496 kts 176°
2026-04-23 02:11 -0.60090 55.43767 35836 ft 495 kts 176°
2026-04-23 02:11 -0.66991 55.44268 35832 ft 497 kts 176°
2026-04-23 02:12 -0.73892 55.44770 35834 ft 495 kts 176°
2026-04-23 02:12 -0.80819 55.45274 35824 ft 496 kts 176°
2026-04-23 02:13 -0.87701 55.45774 35835 ft 496 kts 176°
2026-04-23 02:13 -0.94643 55.46279 35827 ft 496 kts 176°
2026-04-23 02:14 -1.01459 55.46774 35553 ft 485 kts 176°
2026-04-23 02:14 -1.04825 55.47018 34885 ft 483 kts 176°
2026-04-23 02:14 -1.08196 55.47262 34848 ft 487 kts 176°
2026-04-23 02:15 -1.15110 55.47763 34841 ft 501 kts 176°
2026-04-23 02:15 -1.18607 55.48017 34845 ft 499 kts 176°
2026-04-23 02:16 -1.25554 55.48521 34845 ft 499 kts 176°
2026-04-23 02:16 -1.32465 55.49023 34853 ft 498 kts 176°
2026-04-23 02:17 -1.39412 55.49527 34843 ft 500 kts 176°
2026-04-23 02:17 -1.46378 55.50032 34853 ft 500 kts 176°
2026-04-23 02:18 -1.53320 55.50536 34847 ft 500 kts 176°
2026-04-23 02:18 -1.60305 55.51043 34847 ft 499 kts 176°
2026-04-23 02:19 -1.67244 55.51546 34851 ft 501 kts 176°
2026-04-23 02:19 -1.74181 55.52050 34848 ft 499 kts 176°
2026-04-23 02:20 -1.81181 55.52558 34852 ft 500 kts 176°
2026-04-23 02:20 -1.88126 55.53062 34851 ft 500 kts 176°
2026-04-23 02:21 -1.95116 55.53569 34850 ft 500 kts 176°
2026-04-23 02:21 -2.02070 55.54074 34853 ft 500 kts 176°
2026-04-23 02:22 -2.09041 55.54580 34852 ft 501 kts 176°
2026-04-23 02:22 -2.16013 55.55087 34846 ft 499 kts 176°
2026-04-23 02:23 -2.22958 55.55591 34854 ft 500 kts 176°
2026-04-23 02:23 -2.29951 55.56099 34845 ft 500 kts 177°
2026-04-23 02:24 -2.36912 55.56604 34844 ft 500 kts 177°
2026-04-23 02:24 -2.43863 55.57109 34845 ft 500 kts 177°
2026-04-23 02:25 -2.50816 55.57614 34837 ft 501 kts 177°
2026-04-23 02:25 -2.57782 55.58120 34839 ft 500 kts 177°
2026-04-23 02:26 -2.64769 55.58628 34832 ft 499 kts 177°
2026-04-23 02:26 -2.71690 55.59131 34835 ft 499 kts 177°
2026-04-23 02:27 -2.78628 55.59635 34836 ft 500 kts 177°
2026-04-23 02:27 -2.85606 55.60142 34829 ft 500 kts 177°
2026-04-23 02:28 -2.92576 55.60649 34837 ft 500 kts 177°
2026-04-23 02:28 -2.99507 55.61153 34843 ft 499 kts 177°
2026-04-23 02:29 -3.06463 55.61659 34846 ft 500 kts 177°
2026-04-23 02:29 -3.13466 55.62168 34842 ft 499 kts 177°
2026-04-23 02:30 -3.20411 55.62673 34852 ft 500 kts 177°
2026-04-23 02:30 -3.27330 55.63177 34855 ft 500 kts 177°
2026-04-23 02:31 -3.34322 55.63685 34849 ft 500 kts 177°
2026-04-23 02:31 -3.41274 55.64191 34847 ft 500 kts 177°
2026-04-23 02:32 -3.48250 55.64699 34849 ft 500 kts 177°
2026-04-23 02:32 -3.55187 55.65204 34848 ft 500 kts 178°
2026-04-23 02:33 -3.62159 55.65712 34848 ft 501 kts 178°
2026-04-23 02:33 -3.69164 55.66222 34851 ft 501 kts 178°
2026-04-23 02:34 -3.76111 55.66727 34837 ft 500 kts 178°
2026-04-23 02:34 -3.83085 55.67235 34849 ft 501 kts 178°
2026-04-23 02:35 -3.90020 55.67741 34853 ft 500 kts 178°
2026-04-23 02:35 -3.97004 55.68249 34848 ft 501 kts 178°
2026-04-23 02:36 -4.03983 55.68758 34854 ft 501 kts 178°
2026-04-23 02:36 -4.10945 55.69265 34851 ft 501 kts 178°
2026-04-23 02:37 -4.17911 55.69773 34846 ft 500 kts 178°
2026-04-23 02:37 -4.24864 55.70280 34841 ft 500 kts 178°
2026-04-23 02:38 -4.31836 55.70792 34842 ft 502 kts 177°
2026-04-23 02:38 -4.35372 55.71178 35015 ft 510 kts 175°
2026-04-23 02:38 -4.38927 55.71605 35670 ft 507 kts 175°
2026-04-23 02:38 -4.42416 55.72022 35843 ft 508 kts 175°
2026-04-23 02:39 -4.45883 55.72434 35841 ft 501 kts 175°
2026-04-23 02:39 -4.52816 55.73249 35841 ft 499 kts 175°
2026-04-23 02:40 -4.59748 55.74059 35838 ft 500 kts 175°
2026-04-23 02:40 -4.66655 55.74863 35836 ft 499 kts 175°
2026-04-23 02:41 -4.73557 55.75664 35847 ft 500 kts 176°
2026-04-23 02:41 -4.80509 55.76471 35856 ft 500 kts 176°
2026-04-23 02:42 -4.87413 55.77272 35865 ft 499 kts 176°
2026-04-23 02:42 -4.94347 55.78075 35870 ft 499 kts 176°
2026-04-23 02:43 -5.01271 55.78878 35863 ft 500 kts 176°
2026-04-23 02:43 -5.08209 55.79683 35860 ft 500 kts 176°
2026-04-23 02:44 -5.15095 55.80483 35856 ft 498 kts 176°
2026-04-23 02:44 -5.22034 55.81287 35848 ft 498 kts 176°
2026-04-23 02:45 -5.28957 55.82091 35849 ft 498 kts 176°
2026-04-23 02:45 -5.35875 55.82893 35845 ft 499 kts 176°
2026-04-23 02:46 -5.42792 55.83697 35850 ft 500 kts 176°
2026-04-23 02:46 -5.49718 55.84501 35846 ft 499 kts 176°
2026-04-23 02:47 -5.56576 55.85298 35848 ft 497 kts 176°
2026-04-23 02:47 -5.63548 55.86108 35848 ft 498 kts 176°
2026-04-23 02:48 -5.70427 55.86907 35846 ft 498 kts 176°
2026-04-23 02:48 -5.77323 55.87709 35847 ft 496 kts 176°
2026-04-23 02:49 -5.84246 55.88514 35851 ft 498 kts 176°
2026-04-23 02:49 -5.91122 55.89313 35844 ft 498 kts 176°
2026-04-23 02:50 -5.98041 55.90118 35851 ft 497 kts 176°
2026-04-23 02:50 -6.04922 55.90919 35849 ft 496 kts 176°
2026-04-23 02:51 -6.11794 55.91718 35845 ft 498 kts 176°
2026-04-23 02:51 -6.18731 55.92526 35846 ft 498 kts 176°
2026-04-23 02:52 -6.25618 55.93328 35845 ft 497 kts 176°
2026-04-23 02:52 -6.32511 55.94131 35846 ft 496 kts 176°
2026-04-23 02:53 -6.39392 55.94932 35847 ft 498 kts 176°
2026-04-23 02:53 -6.46289 55.95736 35850 ft 499 kts 176°
2026-04-23 02:54 -6.53191 55.96541 35861 ft 499 kts 176°
2026-04-23 02:54 -6.60114 55.97348 35869 ft 500 kts 176°
2026-04-23 02:55 -6.67038 55.98156 35867 ft 498 kts 176°
2026-04-23 02:55 -6.73908 55.98957 35870 ft 498 kts 176°
2026-04-23 02:56 -6.80884 55.99771 35870 ft 500 kts 176°
2026-04-23 02:56 -6.87801 56.00579 35869 ft 500 kts 176°
2026-04-23 02:57 -6.94727 56.01387 35868 ft 500 kts 176°
2026-04-23 02:57 -7.01635 56.02194 35871 ft 500 kts 176°
2026-04-23 02:58 -7.08594 56.03007 35872 ft 499 kts 176°
2026-04-23 02:58 -7.15504 56.03815 35872 ft 499 kts 176°
2026-04-23 02:59 -7.22434 56.04625 35872 ft 499 kts 176°
2026-04-23 02:59 -7.29380 56.05438 35869 ft 499 kts 176°
2026-04-23 03:00 -7.36297 56.06247 35867 ft 501 kts 176°
2026-04-23 03:00 -7.43234 56.07058 35868 ft 500 kts 176°
2026-04-23 03:01 -7.50151 56.07869 35863 ft 499 kts 176°
2026-04-23 03:01 -7.57088 56.08681 35865 ft 498 kts 176°
2026-04-23 03:02 -7.63996 56.09489 35871 ft 500 kts 176°
2026-04-23 03:02 -7.70949 56.10303 35877 ft 500 kts 176°
2026-04-23 03:03 -7.77869 56.11112 35873 ft 499 kts 176°
2026-04-23 03:03 -7.84776 56.11920 35870 ft 500 kts 176°
2026-04-23 03:04 -7.91689 56.12729 35875 ft 499 kts 176°
2026-04-23 03:04 -7.98614 56.13540 35874 ft 498 kts 176°
2026-04-23 03:05 -8.05479 56.14344 35873 ft 499 kts 176°
2026-04-23 03:05 -8.12406 56.15155 35868 ft 501 kts 176°
2026-04-23 03:06 -8.19361 56.15971 35868 ft 498 kts 176°
2026-04-23 03:06 -8.26292 56.16783 35872 ft 502 kts 176°
2026-04-23 03:07 -8.33245 56.17599 35871 ft 500 kts 176°
2026-04-23 03:07 -8.40226 56.18418 35870 ft 503 kts 176°
2026-04-23 03:08 -8.47183 56.19235 35866 ft 504 kts 176°
2026-04-23 03:08 -8.54140 56.20052 35861 ft 502 kts 176°
2026-04-23 03:09 -8.61130 56.20872 35863 ft 504 kts 176°
2026-04-23 03:09 -8.68092 56.21690 35867 ft 504 kts 176°
2026-04-23 03:10 -8.75079 56.22512 35871 ft 505 kts 176°
2026-04-23 03:10 -8.82102 56.23337 35873 ft 506 kts 176°
2026-04-23 03:11 -8.89092 56.24160 35872 ft 504 kts 176°
2026-04-23 03:11 -8.96086 56.24983 35873 ft 505 kts 176°
2026-04-23 03:12 -9.03160 56.25815 35870 ft 508 kts 176°
2026-04-23 03:12 -9.10148 56.26639 35878 ft 507 kts 176°
2026-04-23 03:13 -9.17219 56.27472 35868 ft 506 kts 176°
2026-04-23 03:13 -9.24214 56.28296 35871 ft 508 kts 176°
2026-04-23 03:14 -9.31222 56.29122 35870 ft 507 kts 176°
2026-04-23 03:14 -9.38258 56.29953 35873 ft 507 kts 176°
2026-04-23 03:15 -9.45348 56.30789 35869 ft 507 kts 176°
2026-04-23 03:15 -9.52379 56.31619 35875 ft 509 kts 176°
2026-04-23 03:16 -9.59425 56.32451 35871 ft 509 kts 176°
2026-04-23 03:16 -9.69987 56.33699 35876 ft 509 kts 176°
2026-04-23 03:17 -9.77025 56.34531 35877 ft 509 kts 176°
2026-04-23 03:17 -9.84061 56.35364 35885 ft 509 kts 176°
2026-04-23 03:18 -9.91145 56.36202 35882 ft 510 kts 176°
2026-04-23 03:18 -9.98160 56.37033 35883 ft 509 kts 176°
2026-04-23 03:19 -10.05251 56.37759 35886 ft 509 kts 179°
2026-04-23 03:19 -10.12311 56.38365 35883 ft 510 kts 179°
2026-04-23 03:20 -10.19407 56.38982 35885 ft 511 kts 178°
2026-04-23 03:20 -10.26482 56.39603 35883 ft 510 kts 179°
2026-04-23 03:21 -10.33574 56.40228 35895 ft 510 kts 178°
2026-04-23 03:21 -10.40691 56.40857 35883 ft 510 kts 178°
2026-04-23 03:22 -10.47748 56.41482 35876 ft 511 kts 179°
2026-04-23 03:22 -10.54856 56.42112 35882 ft 510 kts 178°
2026-04-23 03:23 -10.61990 56.42745 35878 ft 512 kts 179°
2026-04-23 03:23 -10.69080 56.43376 35894 ft 510 kts 179°
2026-04-23 03:24 -10.76141 56.44003 35897 ft 510 kts 179°
2026-04-23 03:24 -10.83240 56.44634 35896 ft 512 kts 178°
2026-04-23 03:25 -10.90372 56.45269 35905 ft 511 kts 179°
2026-04-23 03:25 -10.97481 56.45901 35900 ft 512 kts 178°
2026-04-23 03:26 -11.04576 56.46533 35900 ft 511 kts 179°
2026-04-23 03:26 -11.11717 56.47169 35888 ft 511 kts 178°
2026-04-23 03:27 -11.18816 56.47802 35886 ft 511 kts 179°
2026-04-23 03:27 -11.25915 56.48435 35881 ft 511 kts 178°
2026-04-23 03:28 -11.33015 56.49068 35880 ft 513 kts 179°
2026-04-23 03:28 -11.40115 56.49703 35883 ft 511 kts 178°
2026-04-23 03:29 -11.47231 56.50338 35892 ft 510 kts 178°
2026-04-23 03:29 -11.54330 56.50972 35885 ft 513 kts 178°
2026-04-23 03:30 -11.61437 56.51608 35887 ft 512 kts 178°
2026-04-23 03:30 -11.68551 56.52244 35894 ft 512 kts 178°
2026-04-23 03:31 -11.75656 56.52880 35893 ft 511 kts 178°
2026-04-23 03:31 -11.82782 56.53518 35899 ft 512 kts 178°
2026-04-23 03:32 -11.89906 56.54156 35896 ft 511 kts 178°
2026-04-23 03:32 -11.97010 56.54793 35900 ft 512 kts 178°
2026-04-23 03:33 -12.04104 56.55430 35900 ft 511 kts 178°
2026-04-23 03:33 -12.11199 56.56066 35896 ft 511 kts 178°
2026-04-23 03:34 -12.18282 56.56702 35896 ft 512 kts 178°
2026-04-23 03:34 -12.25393 56.57340 35895 ft 513 kts 178°
2026-04-23 03:35 -12.32521 56.57981 35893 ft 512 kts 178°
2026-04-23 03:35 -12.39632 56.58621 35899 ft 512 kts 178°
2026-04-23 03:36 -12.46736 56.59260 35896 ft 512 kts 178°
2026-04-23 03:36 -12.53892 56.59904 35894 ft 512 kts 178°
2026-04-23 03:37 -12.60986 56.60543 35901 ft 513 kts 178°
2026-04-23 03:37 -12.68120 56.61186 35902 ft 514 kts 178°
2026-04-23 03:38 -12.75261 56.61830 35910 ft 514 kts 178°
2026-04-23 03:38 -12.82397 56.62474 35909 ft 513 kts 178°
2026-04-23 03:39 -12.89541 56.63119 35912 ft 514 kts 178°
2026-04-23 03:39 -12.96650 56.63761 35923 ft 513 kts 178°
2026-04-23 03:40 -13.03795 56.64407 35924 ft 514 kts 178°
2026-04-23 03:40 -13.10958 56.65054 35919 ft 515 kts 178°
2026-04-23 03:41 -13.18108 56.65701 35905 ft 515 kts 178°
2026-04-23 03:41 -13.25268 56.66350 35901 ft 515 kts 178°
2026-04-23 03:42 -13.32439 56.66999 35908 ft 514 kts 178°
2026-04-23 03:42 -13.39600 56.67649 35904 ft 515 kts 178°
2026-04-23 03:43 -13.46753 56.68297 35906 ft 518 kts 178°
2026-04-23 03:43 -13.53975 56.68953 35902 ft 516 kts 178°
2026-04-23 03:44 -13.61136 56.69603 35910 ft 516 kts 178°
2026-04-23 03:44 -13.68313 56.70255 35911 ft 516 kts 178°
2026-04-23 03:45 -13.75516 56.70910 35911 ft 516 kts 178°
2026-04-23 03:45 -13.82673 56.71561 35915 ft 516 kts 178°
2026-04-23 03:46 -13.89889 56.72218 35910 ft 516 kts 178°
2026-04-23 03:46 -13.97065 56.72872 35917 ft 517 kts 178°
2026-04-23 03:47 -14.04220 56.73524 35924 ft 519 kts 178°
2026-04-23 03:47 -14.11417 56.74180 35919 ft 518 kts 178°
2026-04-23 03:48 -14.18608 56.74837 35918 ft 519 kts 178°
2026-04-23 03:48 -14.25808 56.75494 35922 ft 518 kts 178°
2026-04-23 03:49 -14.32985 56.76150 35927 ft 516 kts 178°
2026-04-23 03:49 -14.40189 56.76808 35925 ft 518 kts 178°
2026-04-23 03:50 -14.47331 56.77462 35932 ft 518 kts 178°
2026-04-23 03:50 -14.54565 56.78125 35934 ft 518 kts 178°
2026-04-23 03:51 -14.61754 56.78783 35928 ft 518 kts 178°
2026-04-23 03:51 -14.68941 56.79442 35936 ft 518 kts 178°
2026-04-23 03:52 -14.76122 56.80101 35928 ft 518 kts 178°
2026-04-23 03:52 -14.83336 56.80763 35933 ft 518 kts 178°
2026-04-23 03:53 -14.90504 56.81422 35935 ft 517 kts 178°
2026-04-23 03:53 -14.97721 56.82085 35936 ft 518 kts 178°
2026-04-23 03:54 -15.04930 56.82748 35938 ft 519 kts 178°
2026-04-23 03:54 -15.12130 56.83409 35933 ft 518 kts 178°
2026-04-23 03:55 -15.19343 56.84072 35925 ft 519 kts 178°
2026-04-23 03:55 -15.26547 56.84736 35939 ft 519 kts 178°
2026-04-23 03:56 -15.33721 56.85396 35940 ft 516 kts 178°
2026-04-23 03:56 -15.40950 56.86062 35942 ft 518 kts 178°
2026-04-23 03:57 -15.48131 56.86724 35949 ft 517 kts 178°
2026-04-23 03:57 -15.55320 56.87387 35945 ft 520 kts 178°
2026-04-23 03:58 -15.62531 56.88054 35936 ft 518 kts 178°
2026-04-23 03:58 -15.69767 56.88722 35944 ft 517 kts 178°
2026-04-23 03:59 -15.76940 56.89384 35945 ft 522 kts 178°
2026-04-23 03:59 -15.84178 56.90055 35941 ft 518 kts 178°
2026-04-23 04:00 -15.91360 56.90720 35951 ft 517 kts 178°
2026-04-23 04:00 -15.98566 56.91388 35963 ft 518 kts 178°
2026-04-23 04:01 -16.05784 56.92057 35951 ft 519 kts 178°
2026-04-23 04:01 -16.12944 56.92722 35948 ft 519 kts 178°
2026-04-23 04:02 -16.20194 56.93395 35939 ft 518 kts 178°
2026-04-23 04:02 -16.27366 56.94061 35922 ft 520 kts 178°
2026-04-23 04:03 -16.34550 56.94730 35935 ft 516 kts 178°
2026-04-23 04:03 -16.41715 56.95396 35932 ft 514 kts 177°
2026-04-23 04:04 -16.48871 56.96063 35933 ft 521 kts 178°
2026-04-23 04:04 -16.56069 56.96734 35941 ft 514 kts 177°
2026-04-23 04:05 -16.63183 56.97398 35957 ft 515 kts 178°
2026-04-23 04:05 -16.70349 56.98067 35954 ft 514 kts 177°
2026-04-23 04:06 -16.77522 56.98736 35963 ft 517 kts 177°
2026-04-23 04:06 -16.84629 56.99401 35943 ft 510 kts 177°
2026-04-23 04:07 -16.91562 57.00049 35977 ft 517 kts 177°
2026-04-23 04:07 -16.98714 57.00720 35992 ft 509 kts 177°
2026-04-23 04:08 -17.05811 57.01384 35987 ft 510 kts 177°
2026-04-23 04:08 -17.12945 57.02053 35965 ft 513 kts 177°
2026-04-23 04:09 -17.20009 57.02717 35981 ft 507 kts 177°
2026-04-23 04:09 -17.27095 57.03381 35982 ft 513 kts 177°
2026-04-23 04:10 -17.34179 57.04048 35982 ft 508 kts 177°
2026-04-23 04:10 -17.41300 57.04717 35938 ft 512 kts 176°
2026-04-23 04:11 -17.48315 57.05378 35989 ft 501 kts 176°
2026-04-23 04:11 -17.55391 57.06044 35979 ft 511 kts 177°
2026-04-23 04:12 -17.62440 57.06709 35965 ft 508 kts 176°
2026-04-23 04:12 -17.69444 57.07370 35973 ft 501 kts 176°
2026-04-23 04:13 -17.76394 57.08026 35995 ft 505 kts 176°
2026-04-23 04:13 -17.83397 57.08688 36006 ft 503 kts 176°
2026-04-23 04:14 -17.90431 57.09353 35970 ft 509 kts 176°
2026-04-23 04:14 -17.97478 57.10020 35991 ft 504 kts 176°
2026-04-23 04:15 -18.04504 57.10596 35979 ft 505 kts 178°
2026-04-23 04:16 -18.14963 57.11411 35976 ft 501 kts 178°
2026-04-23 04:16 -18.21929 57.11958 35999 ft 501 kts 177°
2026-04-23 04:17 -18.28931 57.12509 35990 ft 505 kts 177°
2026-04-23 04:17 -18.35915 57.13061 35995 ft 499 kts 177°
2026-04-23 04:18 -18.42904 57.13614 35985 ft 505 kts 177°
2026-04-23 04:18 -18.49883 57.14168 35986 ft 497 kts 177°
2026-04-23 04:19 -18.56743 57.14713 36008 ft 491 kts 178°
2026-04-23 04:19 -18.63648 57.15260 35976 ft 494 kts 177°
2026-04-23 04:19 -18.67028 57.15529 35961 ft 483 kts 177°
2026-04-23 04:20 -18.70380 57.15796 35466 ft 479 kts 177°
2026-04-23 04:20 -18.73703 57.16060 34398 ft 489 kts 177°
2026-04-23 04:20 -18.77155 57.16333 32987 ft 506 kts 178°
2026-04-23 04:20 -18.80682 57.16612 31474 ft 524 kts 178°
2026-04-23 04:21 -18.84379 57.16906 30331 ft 531 kts 178°
2026-04-23 04:21 -18.88053 57.17199 29887 ft 522 kts 177°
2026-04-23 04:21 -18.91602 57.17484 29726 ft 509 kts 178°
2026-04-23 04:21 -18.95148 57.17768 29235 ft 504 kts 178°
2026-04-23 04:22 -18.98622 57.18045 28522 ft 504 kts 178°
2026-04-23 04:22 -19.02131 57.18325 27874 ft 503 kts 178°
2026-04-23 04:22 -19.05583 57.18601 27525 ft 495 kts 177°
2026-04-23 04:22 -19.08996 57.18874 27229 ft 485 kts 177°
2026-04-23 04:23 -19.12327 57.19140 26742 ft 481 kts 177°
2026-04-23 04:23 -19.15651 57.19406 26228 ft 477 kts 176°
2026-04-23 04:23 -19.18971 57.19671 25640 ft 474 kts 177°
2026-04-23 04:23 -19.22248 57.19933 25062 ft 472 kts 176°
2026-04-23 04:24 -19.25530 57.20195 24634 ft 465 kts 176°
2026-04-23 04:24 -19.28702 57.20449 24284 ft 457 kts 176°
2026-04-23 04:24 -19.31872 57.20703 23795 ft 453 kts 175°
2026-04-23 04:24 -19.35004 57.20954 23304 ft 448 kts 175°
2026-04-23 04:25 -19.38081 57.21200 22845 ft 443 kts 175°
2026-04-23 04:25 -19.41165 57.21447 22416 ft 437 kts 175°
2026-04-23 04:25 -19.44157 57.21687 21914 ft 433 kts 175°
2026-04-23 04:25 -19.47140 57.21927 21325 ft 431 kts 175°
2026-04-23 04:26 -19.50156 57.22169 20748 ft 428 kts 175°
2026-04-23 04:26 -19.53087 57.22404 20255 ft 424 kts 174°
2026-04-23 04:26 -19.56033 57.22641 19744 ft 418 kts 174°
2026-04-23 04:26 -19.58932 57.22874 19119 ft 414 kts 174°
2026-04-23 04:27 -19.61768 57.23102 18300 ft 408 kts 174°
2026-04-23 04:27 -19.64549 57.23326 17451 ft 403 kts 174°
2026-04-23 04:27 -19.67352 57.23551 16603 ft 397 kts 174°
2026-04-23 04:28 -19.72779 57.23988 14998 ft 386 kts 174°
2026-04-23 04:28 -19.75427 57.24202 14214 ft 379 kts 173°
2026-04-23 04:28 -19.78034 57.24412 13405 ft 375 kts 173°
2026-04-23 04:28 -19.80592 57.24618 12594 ft 370 kts 173°
2026-04-23 04:29 -19.83168 57.24826 11828 ft 364 kts 173°
2026-04-23 04:29 -19.85617 57.25023 11411 ft 348 kts 173°
2026-04-23 04:29 -19.87987 57.25214 11123 ft 330 kts 173°
2026-04-23 04:29 -19.90223 57.25394 10907 ft 312 kts 173°
2026-04-23 04:30 -19.92351 57.25565 10606 ft 300 kts 173°
2026-04-23 04:30 -19.94410 57.25732 10296 ft 288 kts 172°
2026-04-23 04:30 -19.96345 57.25889 10104 ft 273 kts 173°
2026-04-23 04:30 -19.98215 57.26040 9904 ft 269 kts 172°
2026-04-23 04:31 -20.00144 57.26200 9500 ft 279 kts 173°
2026-04-23 04:31 -20.02076 57.26356 9121 ft 280 kts 172°
2026-04-23 04:31 -20.04032 57.26514 8769 ft 280 kts 172°
2026-04-23 04:31 -20.05984 57.26672 8430 ft 279 kts 172°
2026-04-23 04:32 -20.07920 57.26828 8091 ft 278 kts 172°
2026-04-23 04:32 -20.09866 57.26986 7749 ft 278 kts 172°
2026-04-23 04:32 -20.11807 57.27143 7411 ft 277 kts 172°
2026-04-23 04:32 -20.13766 57.27302 7071 ft 276 kts 172°
2026-04-23 04:33 -20.15665 57.27455 6742 ft 276 kts 172°
2026-04-23 04:33 -20.17597 57.27613 6404 ft 275 kts 171°
2026-04-23 04:33 -20.19397 57.28135 6101 ft 264 kts 146°
2026-04-23 04:33 -20.20726 57.29336 6063 ft 245 kts 129°
2026-04-23 04:34 -20.21799 57.30719 5937 ft 236 kts 125°
2026-04-23 04:34 -20.22758 57.32094 5705 ft 232 kts 123°
2026-04-23 04:34 -20.23710 57.33512 5375 ft 233 kts 123°
2026-04-23 04:34 -20.24636 57.34904 5117 ft 231 kts 123°
2026-04-23 04:35 -20.25557 57.36290 4860 ft 229 kts 123°
2026-04-23 04:35 -20.26480 57.37678 4582 ft 227 kts 122°
2026-04-23 04:35 -20.27385 57.39042 4334 ft 225 kts 122°
2026-04-23 04:35 -20.28299 57.40404 4058 ft 225 kts 123°
2026-04-23 04:36 -20.29202 57.41708 3997 ft 214 kts 127°
2026-04-23 04:36 -20.30226 57.42825 3988 ft 206 kts 128°
2026-04-23 04:36 -20.31094 57.44006 3990 ft 203 kts 120°
2026-04-23 04:36 -20.31828 57.45298 3998 ft 202 kts 116°
2026-04-23 04:37 -20.32498 57.46619 4005 ft 202 kts 115°
2026-04-23 04:37 -20.33140 57.47940 4018 ft 201 kts 115°
2026-04-23 04:37 -20.33767 57.49242 3993 ft 189 kts 115°
2026-04-23 04:37 -20.34348 57.50454 3983 ft 180 kts 114°
2026-04-23 04:38 -20.34921 57.51647 3798 ft 184 kts 115°
2026-04-23 04:38 -20.35505 57.52852 3529 ft 181 kts 115°
2026-04-23 04:38 -20.36077 57.54032 3266 ft 177 kts 115°
2026-04-23 04:38 -20.36640 57.55194 3020 ft 174 kts 115°
2026-04-23 04:39 -20.37179 57.56305 2778 ft 163 kts 115°
2026-04-23 04:39 -20.37685 57.57350 2539 ft 156 kts 115°
2026-04-23 04:39 -20.38178 57.58366 2316 ft 154 kts 115°
2026-04-23 04:39 -20.38661 57.59362 2095 ft 147 kts 115°
2026-04-23 04:40 -20.39139 57.60341 1881 ft 149 kts 115°
2026-04-23 04:40 -20.39616 57.61327 1637 ft 149 kts 115°
2026-04-23 04:40 -20.40089 57.62311 1411 ft 148 kts 116°
2026-04-23 04:40 -20.40568 57.63281 1184 ft 150 kts 115°
2026-04-23 04:41 -20.41046 57.64273 941 ft 150 kts 115°
2026-04-23 04:41 -20.41529 57.65266 705 ft 151 kts 115°
2026-04-23 04:41 -20.42007 57.66261 465 ft 151 kts 115°
2026-04-23 04:41 -20.42494 57.67255 235 ft 153 kts 116°
2026-04-23 04:42 -20.42941 57.68185 179 ft 118 kts 116°
2026-04-23 04:42 -20.43233 57.68790 159 ft 65 kts 116°
2026-04-23 04:42 -20.43387 57.69115 142 ft 42 kts 116°
2026-04-23 04:42 -20.43483 57.69306 131 ft 19 kts 117°
2026-04-23 04:43 -20.43563 57.69356 126 ft 13 kts 194°
2026-04-23 04:43 -20.43623 57.69328 127 ft 8 kts 213°
2026-04-23 04:43 -20.43650 57.69285 129 ft 6 kts 265°
2026-04-23 04:43 -20.43643 57.69247 131 ft 6 kts 289°
2026-04-23 04:44 -20.43616 57.69185 135 ft 11 kts 296°
2026-04-23 04:44 -20.43577 57.69104 140 ft 11 kts 297°
2026-04-23 04:44 -20.43544 57.69035 145 ft 9 kts 297°
2026-04-23 04:44 -20.43514 57.68972 149 ft 9 kts 296°
2026-04-23 04:45 -20.43486 57.68913 153 ft 9 kts 297°
2026-04-23 04:45 -20.43456 57.68852 156 ft 9 kts 297°
2026-04-23 04:45 -20.43423 57.68784 159 ft 12 kts 297°
2026-04-23 04:45 -20.43378 57.68691 163 ft 15 kts 297°
2026-04-23 04:46 -20.43325 57.68581 167 ft 18 kts 297°
2026-04-23 04:46 -20.43265 57.68458 171 ft 19 kts 297°
2026-04-23 04:46 -20.43207 57.68337 176 ft 16 kts 296°
2026-04-23 04:46 -20.43161 57.68239 180 ft 12 kts 297°
2026-04-23 04:47 -20.43125 57.68163 182 ft 9 kts 285°
2026-04-23 04:47 -20.43143 57.68110 184 ft 6 kts 231°
2026-04-23 04:47 -20.43158 57.68076 186 ft 4 kts 266°
2026-04-23 04:47 -20.43150 57.68038 187 ft 5 kts 290°
2026-04-23 04:48 -20.43138 57.67994 189 ft 5 kts 259°
2026-04-23 04:48 -20.43159 57.67959 190 ft 6 kts 226°
2026-04-23 04:48 -20.43191 57.67924 192 ft 5 kts 225°
2026-04-23 04:48 -20.43203 57.67911 192 ft 0 kts 225°